Regional Weather Roundup
Issued by NWS

Home | Current Version | Previous Version | Text Only | Print | Product List | Glossary Off
Versions: 1 2 3 4 5 6 7 8 9 10 11 12 13 14 15 16 17 18 19 20 21 22 23 24 25 26 27 28 29 30 31 32 33 34 35 36 37 38 39 40 41 42 43 44 45 46 47 48 49 50

000
ASUS45 KSLC 032210
RWRUT

UTAH REGIONAL WEATHER ROUNDUP
NATIONAL WEATHER SERVICE SALT LAKE CITY UT
400 PM MDT FRI JUL 03 2015

UTZ001>011-023>025-032300-

NORTHERN UTAH

CITY           SKY/WX    TMP DP  RH WIND       PRES   REMARKS
BRIGHAM CITY   SUNNY     96  30  10 S5        29.96F HX  90
HILL AFB       SUNNY     95  45  18 W5        30.01F HX  91
LOGAN          SUNNY     96  39  13 S8        29.96F HX  91
OGDEN          SUNNY     95  40  14 VRB6      29.97F HX  91
PROVO AIRPORT  MOSUNNY   97  45  16 SW8       29.98F HX  93
SALT LAKE CITY PTSUNNY   98  43  15 SW8       29.95F HX  94
VERNAL         MOSUNNY   93  38  14 VRB5      30.01F
WENDOVER       PTSUNNY   97  41  14 SE9       29.96F HX  92
HEBER CITY     MOSUNNY   95  37  13 CALM      30.06F HX  90
WEST JORDAN    SUNNY     97  41  14 NW7G17    29.99F HX  92

$$

UTZ012>022-026-027-032300-

SOUTHERN/CENTRAL UTAH

CITY           SKY/WX    TMP DP  RH WIND       PRES   REMARKS
BLANDING       PTSUNNY   83  51  33 W5        30.18F
BRYCE CANYON   CLOUDY    76  47  35 S13G23    30.26F
CEDAR CITY     PTSUNNY   90  39  16 S6        30.08F
DELTA          MOSUNNY   98  32  10 W10       29.98F HX  92
HANKSVILLE     SUNNY    100  39  12 SE16      29.94F HX  95
MILFORD        PTSUNNY   95  39  14 N6        30.03F HX  91
MOAB/CYNLANDS  SUNNY     99  42  14 MISG      29.92F HX  94
PRICE          MOSUNNY   97  37  12 W13G18    30.05F HX  92
ST GEORGE      PTCLDY   104  54  18 W6        29.87R HX 102
KANAB          CLOUDY    79  59  50 NW15      30.09F

$$

REGIONAL REPORTS     COLORADO/ARIZONA

CITY           SKY/WX    TMP DP  RH WIND       PRES   REMARKS
CRAIG, CO      MOSUNNY   88  37  16 E7        30.09F
GRAND JUNCTION MOSUNNY   94  45  18 NW10      29.96F HX  90
RIFLE          PTSUNNY   80  52  37 W8        30.05F
MONTROSE       PTSUNNY   84  51  31 W8        30.08S
CORTEZ         SUNNY     88  48  25 SW7       30.10F
PAGE, AZ       MOSUNNY   93  47  20 CALM      29.96F
GRAND CANYON   CLOUDY    79  52  38 S3        30.20F
KINGMAN        SUNNY     99  43  14 SW15G23   29.95F HX  95
FLAGSTAFF      MOSUNNY   79  52  38 VRB5      30.22F

$$

REGIONAL REPORTS    NEVADA/IDAHO/WYOMING

CITY           SKY/WX    TMP DP  RH WIND       PRES   REMARKS
LAS VEGAS, NV  PTSUNNY  107  38   9 SW5       29.76F HX 101
ELY            PTSUNNY   81  55  40 E18       30.16F
ELKO           MOSUNNY   93  44  18 VRB5      30.03F
POCATELLO, ID  SUNNY     97  41  14 SW17      29.96F HX  92
BURLEY         SUNNY     94  46  19 W9        29.93F HX  90
EVANSTON, WY   CLOUDY    85  38  18 MISG      30.20F
ROCK SPRINGS   SUNNY     85  35  16 CALM      30.15F
KEMMERER       SUNNY     86  30  13 W17G24    30.21S

$$



USA.gov is the U.S. government's official web portal to all federal, state and local government web resources and services.